Location: Finney State Fishing Lake and Wildlife Area
(38.1834°N, 100.3310°W)
Time: 15:10:30
(UTC+00:00)

X-37B - Pass Details

Date: 04 December 2023
Orbit: 277 x 277 km, 45.0° (Epoch: 01 November)

Event Time Altitude Azimuth Distance (km) Brightness Sun altitude
Rises 00:32:38 0° 284° (WNW) 1,913 5.2 -13.8°
Reaches altitude 10° 00:34:54 10° 306° (NW) 1,101 3.4 -14.2°
Maximum altitude 00:36:41 18° 352° (N) 790 2.0 -14.5°
Enters shadow 00:36:55 17° 1° (N) 797 2.0 -14.6°
